Regional Weather Roundup
Issued by NWS

Home | Current Version | Previous Version | Text Only | Print | Product List | Glossary Off
Versions: 1 2 3 4 5 6 7 8 9 10 11 12 13 14 15 16 17 18 19 20 21 22 23 24 25 26 27 28 29 30 31 32 33 34 35 36 37 38 39 40 41 42 43 44 45 46 47 48 49 50

000
ASUS43 KBIS 261302
RWRND

NORTH DAKOTA REGIONAL WEATHER ROUNDUP
NATIONAL WEATHER SERVICE BISMARCK ND
800 AM CDT WED APR 26 2017

NOTE: "FAIR" INDICATES FEW OR NO CLOUDS BELOW 12,000 FEET WITH NO
SIGNIFICANT WEATHER AND/OR OBSTRUCTIONS TO VISIBILITY.


NDZ001>003-009>011-017-261400-
NORTHWEST NORTH DAKOTA

CITY           SKY/WX    TMP DP  RH WIND       PRES   REMARKS
WILLISTON      FAIR      28  21  75 N6        29.96R
MINOT          FAIR      27  21  78 N12       29.93S WCI  17
MINOT AFB      CLOUDY    27  21  78 N10       29.94R WCI  17
$$

NDZ018>021-031>035-040>046-261400-
SOUTHWEST NORTH DAKOTA

CITY           SKY/WX    TMP DP  RH WIND       PRES   REMARKS
BISMARCK       FAIR      32  23  69 N13       29.89R
DICKINSON      CLOUDY    30  23  75 NE9       29.88R
GARRISON         N/A     26  21  81 N9        29.91S WCI  17
HETTINGER ARPT CLOUDY    30  24  78 N9        29.89R
$$

NDZ004>008-012>016-024-026-027-054-261400-
NORTHEAST NORTH DAKOTA

CITY           SKY/WX    TMP DP  RH WIND       PRES   REMARKS
GRAND FORKS    CLOUDY    31  26  82 N20       29.84R WCI  19
GRND FRKS AFB  MIX PCPN  30  25  80 NE16      29.85R WCI  19
DEVILS LAKE    CLOUDY    28  22  78 NE17      29.88R WCI  16
$$

NDZ022-023-025-028>030-036>039-047>053-261400-
SOUTHEAST NORTH DAKOTA

CITY           SKY/WX    TMP DP  RH WIND       PRES   REMARKS
FARGO          LGT SNOW  29  26  89 N18G28    29.76S FOG     WCI  16
JAMESTOWN      CLOUDY    29  25  85 N20       29.80S WCI  16
$$





USA.gov is the U.S. government's official web portal to all federal, state and local government web resources and services.